Index of /user/pool/main/k

[ICO]NameLast modifiedSizeDescription

[PARENTDIR]Parent Directory  -  
[DIR]k3b/2024-07-08 14:14 -  
[DIR]kaccounts-integration/2024-07-08 14:14 -  
[DIR]kaccounts-providers/2024-07-08 14:14 -  
[DIR]kaccounts5-integration/2024-07-08 14:14 -  
[DIR]kactivities-kf5/2024-07-08 14:14 -  
[DIR]kactivities-stats/2024-07-08 14:14 -  
[DIR]kactivitymanagerd/2024-07-08 14:14 -  
[DIR]kaddressbook/2024-07-08 14:14 -  
[DIR]kaffeine/2024-07-08 14:14 -  
[DIR]kaidan/2024-07-08 14:14 -  
[DIR]kajongg/2024-07-08 14:14 -  
[DIR]kalarm/2024-07-08 14:14 -  
[DIR]kalarmcal/2022-11-11 11:21 -  
[DIR]kalendar/2023-10-12 11:25 -  
[DIR]kalgebra/2024-07-08 14:14 -  
[DIR]kalk/2024-07-08 14:14 -  
[DIR]kalm/2024-07-08 14:14 -  
[DIR]kalzium/2024-07-08 14:14 -  
[DIR]kamera/2024-07-08 14:14 -  
[DIR]kamoso/2024-07-08 14:14 -  
[DIR]kanagram/2024-07-08 14:14 -  
[DIR]kapidox/2024-07-08 14:14 -  
[DIR]kapman/2024-07-08 14:14 -  
[DIR]kapptemplate/2024-07-08 14:14 -  
[DIR]karchive/2024-07-08 14:14 -  
[DIR]kasts/2024-07-11 23:44 -  
[DIR]kate/2024-07-08 14:14 -  
[DIR]katomic/2024-07-08 14:14 -  
[DIR]kauth/2024-07-08 14:14 -  
[DIR]kbackup/2024-07-08 14:14 -  
[DIR]kbibtex/2024-07-08 14:14 -  
[DIR]kblackbox/2024-07-08 14:14 -  
[DIR]kblocks/2024-07-08 14:14 -  
[DIR]kblog/2022-05-31 11:12 -  
[DIR]kbookmarks/2024-07-08 14:14 -  
[DIR]kbounce/2024-07-08 14:14 -  
[DIR]kbreakout/2024-07-08 14:14 -  
[DIR]kbruch/2024-07-08 14:14 -  
[DIR]kcachegrind/2024-07-08 14:14 -  
[DIR]kcalc/2024-07-08 14:14 -  
[DIR]kcalcore/2024-07-08 14:14 -  
[DIR]kcalutils/2024-07-08 14:14 -  
[DIR]kcharselect/2024-07-08 14:14 -  
[DIR]kclock/2024-07-08 14:14 -  
[DIR]kcmutils/2024-07-08 14:14 -  
[DIR]kcodecs/2024-07-08 14:14 -  
[DIR]kcolorchooser/2024-07-08 14:14 -  
[DIR]kcolorpicker/2024-07-08 14:14 -  
[DIR]kcompletion/2024-07-08 14:14 -  
[DIR]kconfig/2024-07-08 14:14 -  
[DIR]kconfigwidgets/2024-07-08 14:14 -  
[DIR]kcontacts/2024-07-08 14:14 -  
[DIR]kcoreaddons/2024-07-08 14:14 -  
[DIR]kcrash/2024-07-08 14:14 -  
[DIR]kcron/2024-07-08 14:14 -  
[DIR]kdav/2024-07-08 14:14 -  
[DIR]kdb/2024-07-08 14:14 -  
[DIR]kdbusaddons/2024-07-08 14:14 -  
[DIR]kddockwidgets/2024-07-08 14:14 -  
[DIR]kde-cli-tools/2024-07-08 14:14 -  
[DIR]kde-dev-scripts/2024-07-08 14:14 -  
[DIR]kde-dev-utils/2024-07-08 14:14 -  
[DIR]kde-development-environment/2022-05-31 11:11 -  
[DIR]kde-gtk-config/2024-07-08 14:14 -  
[DIR]kde-inotify-survey/2024-07-08 14:14 -  
[DIR]kde-l10n/2022-05-31 11:11 -  
[DIR]kde-nomodeset/2024-07-11 23:44 -  
[DIR]kde-spectacle/2024-07-08 14:14 -  
[DIR]kdebugsettings/2024-07-08 14:14 -  
[DIR]kdeclarative/2024-07-08 14:15 -  
[DIR]kdeconnect/2024-07-08 14:14 -  
[DIR]kdecoration/2024-07-08 14:14 -  
[DIR]kded/2024-07-08 14:14 -  
[DIR]kdeedu-data/2024-07-08 14:14 -  
[DIR]kdegraphics-mobipocket-5/2024-07-08 14:14 -  
[DIR]kdegraphics-mobipocket/2024-07-08 14:14 -  
[DIR]kdegraphics-thumbnailers-5/2024-07-08 14:14 -  
[DIR]kdegraphics-thumbnailers/2024-07-08 14:14 -  
[DIR]kdelibs4support/2024-07-08 14:14 -  
[DIR]kdenetwork-filesharing/2024-07-08 14:14 -  
[DIR]kdenlive/2024-07-08 14:14 -  
[DIR]kdepim-addons/2024-07-08 14:14 -  
[DIR]kdepim-runtime/2024-07-08 14:14 -  
[DIR]kdeplasma-addons/2024-07-08 14:14 -  
[DIR]kdesdk-devenv-dependencies/2024-07-08 14:14 -  
[DIR]kdesdk-kio/2024-07-08 14:14 -  
[DIR]kdesdk-kioslaves/2022-10-17 10:44 -  
[DIR]kdesdk-thumbnailers/2024-07-08 14:14 -  
[DIR]kdesignerplugin/2024-07-08 14:14 -  
[DIR]kdesu/2024-07-08 14:14 -  
[DIR]kdesvn/2024-07-08 14:14 -  
[DIR]kdevelop-pg-qt/2024-07-08 14:14 -  
[DIR]kdevelop-php/2024-07-08 14:14 -  
[DIR]kdevelop-python/2024-07-05 03:15 -  
[DIR]kdevelop/2024-07-08 14:14 -  
[DIR]kdewebkit/2024-07-08 14:14 -  
[DIR]kdf/2024-07-08 14:14 -  
[DIR]kdiagram/2024-07-08 14:14 -  
[DIR]kdiagram5/2024-07-08 14:14 -  
[DIR]kdialog/2024-07-08 14:14 -  
[DIR]kdiamond/2024-07-08 14:14 -  
[DIR]kdiff3/2024-07-08 14:14 -  
[DIR]kdnssd-kf5/2024-07-08 14:14 -  
[DIR]kdoctools/2024-07-08 14:14 -  
[DIR]kdsoap-ws-discovery-client/2024-07-08 14:14 -  
[DIR]kdsoap/2024-07-08 14:14 -  
[DIR]kdsoap5/2024-07-08 14:14 -  
[DIR]keditbookmarks/2024-07-08 14:14 -  
[DIR]kemoticons/2024-07-08 14:14 -  
[DIR]keurocalc/2024-07-08 14:14 -  
[DIR]kexi/2024-07-08 14:14 -  
[DIR]keyman/2024-04-16 12:31 -  
[DIR]keysmith/2024-07-08 14:14 -  
[DIR]kf5-kdepim-apps-libs/2022-05-31 11:12 -  
[DIR]kf5-messagelib/2024-02-28 13:40 -  
[DIR]kf6-attica/2024-07-08 14:14 -  
[DIR]kf6-baloo/2024-07-08 14:14 -  
[DIR]kf6-bluez-qt/2024-07-08 14:14 -  
[DIR]kf6-breeze-icons/2024-07-08 14:14 -  
[DIR]kf6-extra-cmake-modules/2024-07-08 14:14 -  
[DIR]kf6-frameworkintegration/2024-07-08 14:14 -  
[DIR]kf6-kapidox/2024-07-08 14:14 -  
[DIR]kf6-karchive/2024-07-08 14:14 -  
[DIR]kf6-kauth/2024-07-08 14:14 -  
[DIR]kf6-kbookmarks/2024-07-08 14:14 -  
[DIR]kf6-kcalendarcore/2024-07-08 14:14 -  
[DIR]kf6-kcmutils/2024-07-08 14:14 -  
[DIR]kf6-kcodecs/2024-07-08 14:14 -  
[DIR]kf6-kcolorscheme/2024-07-08 14:14 -  
[DIR]kf6-kcompletion/2024-07-08 14:14 -  
[DIR]kf6-kconfig/2024-07-08 14:14 -  
[DIR]kf6-kconfigwidgets/2024-07-08 14:14 -  
[DIR]kf6-kcontacts/2024-07-08 14:14 -  
[DIR]kf6-kcoreaddons/2024-07-08 14:14 -  
[DIR]kf6-kcrash/2024-07-08 14:14 -  
[DIR]kf6-kdav/2024-07-08 14:14 -  
[DIR]kf6-kdbusaddons/2024-07-08 14:14 -  
[DIR]kf6-kdeclarative/2024-07-08 14:15 -  
[DIR]kf6-kded/2024-07-08 14:14 -  
[DIR]kf6-kdesu/2024-07-08 14:14 -  
[DIR]kf6-kdnssd/2024-07-08 14:14 -  
[DIR]kf6-kdoctools/2024-07-08 14:14 -  
[DIR]kf6-kfilemetadata/2024-07-08 14:14 -  
[DIR]kf6-kglobalaccel/2024-07-08 14:14 -  
[DIR]kf6-kguiaddons/2024-07-08 14:14 -  
[DIR]kf6-kholidays/2024-07-08 14:14 -  
[DIR]kf6-ki18n/2024-07-08 14:14 -  
[DIR]kf6-kiconthemes/2024-07-08 14:14 -  
[DIR]kf6-kidletime/2024-07-08 14:14 -  
[DIR]kf6-kimageformats/2024-07-08 14:14 -  
[DIR]kf6-kio/2024-07-08 14:14 -  
[DIR]kf6-kirigami-addons/2024-07-08 14:14 -  
[DIR]kf6-kirigami/2024-07-08 14:14 -  
[DIR]kf6-kitemmodels/2024-07-08 14:14 -  
[DIR]kf6-kitemviews/2024-07-08 14:14 -  
[DIR]kf6-kjobwidgets/2024-07-08 14:14 -  
[DIR]kf6-knewstuff/2024-07-08 14:14 -  
[DIR]kf6-knotifications/2024-07-08 14:14 -  
[DIR]kf6-knotifyconfig/2024-07-08 14:14 -  
[DIR]kf6-kpackage/2024-07-08 14:14 -  
[DIR]kf6-kparts/2024-07-08 14:14 -  
[DIR]kf6-kpeople/2024-07-08 14:14 -  
[DIR]kf6-kplotting/2024-07-08 14:14 -  
[DIR]kf6-kpty/2024-07-08 14:14 -  
[DIR]kf6-kquickcharts/2024-07-08 14:14 -  
[DIR]kf6-krunner/2024-07-08 14:14 -  
[DIR]kf6-kservice/2024-07-08 14:14 -  
[DIR]kf6-kstatusnotifieritem/2024-07-08 14:14 -  
[DIR]kf6-ksvg/2024-07-08 14:14 -  
[DIR]kf6-ktextaddons/2024-07-08 14:14 -  
[DIR]kf6-ktexteditor/2024-07-08 14:14 -  
[DIR]kf6-ktexttemplate/2024-07-08 14:14 -  
[DIR]kf6-ktextwidgets/2024-07-08 14:14 -  
[DIR]kf6-kunitconversion/2024-07-08 14:14 -  
[DIR]kf6-kwallet/2024-07-08 14:14 -  
[DIR]kf6-kwidgetsaddons/2024-07-08 14:14 -  
[DIR]kf6-kwindowsystem/2024-07-08 14:14 -  
[DIR]kf6-kxmlgui/2024-07-08 14:14 -  
[DIR]kf6-modemmanager-qt/2024-07-08 14:14 -  
[DIR]kf6-networkmanager-qt/2024-07-08 14:14 -  
[DIR]kf6-oxygen-icons/2024-07-08 14:14 -  
[DIR]kf6-polkit-qt-1/2024-07-08 14:14 -  
[DIR]kf6-prison/2024-07-08 14:14 -  
[DIR]kf6-purpose/2024-07-08 14:14 -  
[DIR]kf6-qqc2-desktop-style/2024-07-08 14:14 -  
[DIR]kf6-solid/2024-07-08 14:15 -  
[DIR]kf6-sonnet/2024-07-08 14:15 -  
[DIR]kf6-syndication/2024-07-08 14:14 -  
[DIR]kf6-syntax-highlighting/2024-07-08 14:14 -  
[DIR]kf6-threadweaver/2024-07-08 14:14 -  
[DIR]kf6-userfeedback/2024-07-08 14:14 -  
[DIR]kfilemetadata-kf5/2024-07-08 14:14 -  
[DIR]kfind/2024-07-08 14:14 -  
[DIR]kfloppy/2023-08-02 12:45 -  
[DIR]kfourinline/2024-07-08 14:14 -  
[DIR]kgamma/2024-07-08 14:14 -  
[DIR]kgamma5/2024-03-20 16:44 -  
[DIR]kgeography/2024-07-08 14:14 -  
[DIR]kgeotag/2024-07-08 14:14 -  
[DIR]kget/2024-07-08 14:14 -  
[DIR]kglobalaccel/2024-07-08 14:14 -  
[DIR]kglobalacceld/2024-07-08 14:14 -  
[DIR]kgoldrunner/2024-07-08 14:14 -  
[DIR]kgpg/2024-07-08 14:14 -  
[DIR]kgraphviewer/2024-07-08 14:14 -  
[DIR]kguiaddons/2024-07-08 14:14 -  
[DIR]khangman/2024-07-08 14:14 -  
[DIR]khealthcertificate/2024-07-08 14:14 -  
[DIR]khelpcenter/2024-07-08 14:14 -  
[DIR]kholidays/2024-07-08 14:14 -  
[DIR]khotkeys/2024-07-08 14:14 -  
[DIR]khtml/2024-07-08 14:14 -  
[DIR]ki18n/2024-07-08 14:14 -  
[DIR]kiconthemes/2024-07-08 14:14 -  
[DIR]kid3/2024-07-08 14:14 -  
[DIR]kidentitymanagement/2024-07-08 14:14 -  
[DIR]kidletime/2024-07-08 14:14 -  
[DIR]kig/2024-07-08 14:14 -  
[DIR]kigo/2024-07-08 14:14 -  
[DIR]kile/2024-07-08 14:14 -  
[DIR]killbots/2024-07-08 14:14 -  
[DIR]kimageannotator/2024-07-08 14:14 -  
[DIR]kimageformats/2024-07-08 14:14 -  
[DIR]kimagemapeditor/2024-07-08 14:14 -  
[DIR]kimap/2024-07-08 14:14 -  
[DIR]kinfocenter/2024-07-08 14:14 -  
[DIR]kinit/2024-07-08 14:14 -  
[DIR]kio-admin/2024-07-08 14:14 -  
[DIR]kio-extras/2024-07-08 14:14 -  
[DIR]kio-extras5/2024-07-08 14:14 -  
[DIR]kio-fuse/2024-07-08 14:14 -  
[DIR]kio-gdrive/2024-07-08 14:14 -  
[DIR]kio-stash/2024-07-08 14:14 -  
[DIR]kio-zeroconf/2024-07-08 14:14 -  
[DIR]kio/2024-07-08 14:14 -  
[DIR]kipi-plugins/2024-07-08 14:14 -  
[DIR]kirigami-addons/2024-07-08 14:14 -  
[DIR]kirigami-gallery/2024-07-08 14:14 -  
[DIR]kirigami2/2024-07-08 14:14 -  
[DIR]kiriki/2024-07-08 14:14 -  
[DIR]kitemmodels/2024-07-08 14:14 -  
[DIR]kitemviews/2024-07-08 14:14 -  
[DIR]kiten/2024-07-08 14:14 -  
[DIR]kitinerary/2024-07-08 14:14 -  
[DIR]kjobwidgets/2024-07-08 14:14 -  
[DIR]kjots/2024-07-08 14:14 -  
[DIR]kjournald/2024-07-08 14:14 -  
[DIR]kjs/2024-07-08 14:14 -  
[DIR]kjsembed/2024-07-08 14:14 -  
[DIR]kjumpingcube/2024-07-08 14:14 -  
[DIR]kldap/2024-07-08 14:14 -  
[DIR]kleopatra/2024-07-08 14:14 -  
[DIR]klettres/2024-07-08 14:14 -  
[DIR]klevernotes/2024-07-08 14:14 -  
[DIR]klickety/2024-07-08 14:14 -  
[DIR]klines/2024-07-08 14:14 -  
[DIR]kmag/2024-07-08 14:14 -  
[DIR]kmahjongg/2024-07-08 14:14 -  
[DIR]kmail-account-wizard/2024-07-08 14:14 -  
[DIR]kmail/2024-07-08 14:14 -  
[DIR]kmailtransport/2024-07-08 14:14 -  
[DIR]kmarkdownwebview/2022-08-17 15:54 -  
[DIR]kmbox/2024-07-08 14:14 -  
[DIR]kmediaplayer/2024-07-08 14:14 -  
[DIR]kmenuedit/2024-07-08 14:14 -  
[DIR]kmime/2024-07-08 14:14 -  
[DIR]kmines/2024-07-08 14:14 -  
[DIR]kmix/2024-07-08 14:14 -  
[DIR]kmousetool/2024-07-08 14:14 -  
[DIR]kmouth/2024-07-08 14:14 -  
[DIR]kmplot/2024-07-08 14:14 -  
[DIR]kmymoney/2024-07-08 14:14 -  
[DIR]knavalbattle/2024-07-08 14:14 -  
[DIR]knetwalk/2024-07-08 14:14 -  
[DIR]knewstuff/2024-07-08 14:14 -  
[DIR]knights/2024-07-08 14:14 -  
[DIR]knotes/2024-07-08 14:14 -  
[DIR]knotifications/2024-07-08 14:14 -  
[DIR]knotifyconfig/2024-07-08 14:14 -  
[DIR]koko/2024-07-08 14:14 -  
[DIR]kolf/2024-07-08 14:14 -  
[DIR]kollision/2024-07-08 14:14 -  
[DIR]kolourpaint/2024-07-08 14:14 -  
[DIR]kommit/2024-07-08 14:14 -  
[DIR]kompare/2024-07-08 14:14 -  
[DIR]kongress/2024-07-08 14:14 -  
[DIR]konqueror/2024-07-08 14:14 -  
[DIR]konquest/2024-07-08 14:14 -  
[DIR]konsole/2024-07-08 14:14 -  
[DIR]kontact/2024-07-08 14:14 -  
[DIR]kontactinterface/2024-07-08 14:14 -  
[DIR]kontrast/2024-07-08 14:14 -  
[DIR]konversation/2024-07-08 14:14 -  
[DIR]kopeninghours/2024-07-08 14:14 -  
[DIR]kopete/2024-02-03 12:20 -  
[DIR]korganizer/2024-07-08 14:14 -  
[DIR]kosmindoormap/2024-07-08 14:14 -  
[DIR]kpackage/2024-07-08 14:14 -  
[DIR]kparts/2024-07-08 14:14 -  
[DIR]kpat/2024-07-08 14:14 -  
[DIR]kpeople/2024-07-08 14:14 -  
[DIR]kpeoplevcard/2024-07-08 14:14 -  
[DIR]kphotoalbum/2024-07-08 14:14 -  
[DIR]kpim6-calendarsupport/2024-07-08 14:14 -  
[DIR]kpim6-eventviews/2024-07-08 14:14 -  
[DIR]kpim6-grantleetheme/2024-07-08 14:14 -  
[DIR]kpim6-incidenceeditor/2024-07-08 14:14 -  
[DIR]kpim6-libgravatar/2024-07-08 14:14 -  
[DIR]kpim6-libkdepim/2024-07-08 14:14 -  
[DIR]kpim6-libkgapi/2024-07-08 14:14 -  
[DIR]kpim6-libkleo/2024-07-08 14:14 -  
[DIR]kpim6-libksieve/2024-07-08 14:14 -  
[DIR]kpim6-mailcommon/2024-07-08 14:14 -  
[DIR]kpim6-mailimporter/2024-07-08 14:14 -  
[DIR]kpim6-messagelib/2024-07-08 14:14 -  
[DIR]kpim6-pimcommon/2024-07-08 14:14 -  
[DIR]kpim6grantleetheme/2024-06-05 17:15 -  
[DIR]kpimtextedit/2024-07-08 14:14 -  
[DIR]kpipewire/2024-07-08 14:14 -  
[DIR]kpkpass/2024-07-08 14:14 -  
[DIR]kplotting/2024-07-08 14:14 -  
[DIR]kpmcore/2024-07-08 14:14 -  
[DIR]kproperty/2024-07-08 14:14 -  
[DIR]kpty/2024-07-08 14:14 -  
[DIR]kpublictransport/2024-07-08 14:14 -  
[DIR]kqtquickcharts/2024-07-08 14:14 -  
[DIR]kquickcharts/2024-07-08 14:14 -  
[DIR]kquickimageeditor/2024-07-08 14:14 -  
[DIR]kraft/2024-07-08 14:14 -  
[DIR]krdc/2024-07-08 14:14 -  
[DIR]krdp/2024-07-11 23:44 -  
[DIR]krecorder/2024-07-08 14:14 -  
[DIR]krename/2024-07-08 14:14 -  
[DIR]kreport/2024-07-08 14:14 -  
[DIR]kreversi/2024-07-08 14:14 -  
[DIR]krfb/2024-07-08 14:14 -  
[DIR]krita/2024-07-08 14:14 -  
[DIR]kronometer/2024-07-08 14:14 -  
[DIR]kross-interpreters/2024-07-08 14:14 -  
[DIR]kross/2024-07-08 14:14 -  
[DIR]kruler/2024-07-08 14:14 -  
[DIR]krunner/2024-05-22 14:39 -  
[DIR]krusader/2024-07-08 14:14 -  
[DIR]ksanecore/2024-07-08 14:14 -  
[DIR]ksanecore5/2024-07-08 14:14 -  
[DIR]kscreen/2024-07-08 14:14 -  
[DIR]kscreenlocker/2024-07-08 14:14 -  
[DIR]kseexpr/2022-08-17 15:54 -  
[DIR]kservice/2024-07-08 14:14 -  
[DIR]kshisen/2024-07-08 14:14 -  
[DIR]ksirk/2024-07-08 14:14 -  
[DIR]ksmtp/2024-07-08 14:14 -  
[DIR]ksnakeduel/2024-07-08 14:14 -  
[DIR]kspaceduel/2024-07-08 14:14 -  
[DIR]ksquares/2024-07-08 14:14 -  
[DIR]ksshaskpass/2024-07-08 14:14 -  
[DIR]kstars/2024-07-08 14:14 -  
[DIR]ksudoku/2024-07-08 14:14 -  
[DIR]ksyntax-highlighting/2024-07-08 14:14 -  
[DIR]ksysguard/2024-02-28 13:40 -  
[DIR]ksystemlog/2024-07-08 14:14 -  
[DIR]ksystemstats/2024-07-08 14:14 -  
[DIR]ksystraycmd5/2022-05-31 11:11 -  
[DIR]kteatime/2024-07-08 14:14 -  
[DIR]ktechlab/2024-07-08 14:14 -  
[DIR]ktextaddons/2024-02-28 13:40 -  
[DIR]ktexteditor/2024-07-08 14:14 -  
[DIR]ktextwidgets/2024-07-08 14:14 -  
[DIR]ktimer/2024-07-08 14:14 -  
[DIR]ktimetracker/2024-07-08 14:14 -  
[DIR]ktnef/2024-07-08 14:14 -  
[DIR]ktorrent/2024-07-08 14:14 -  
[DIR]ktouch/2024-07-08 14:14 -  
[DIR]ktp-accounts-kcm/2023-08-02 12:45 -  
[DIR]ktp-approver/2023-08-02 12:45 -  
[DIR]ktp-auth-handler/2023-08-02 12:45 -  
[DIR]ktp-call-ui/2023-08-02 12:45 -  
[DIR]ktp-common-internals/2023-08-02 12:45 -  
[DIR]ktp-contact-list/2023-08-02 12:45 -  
[DIR]ktp-contact-runner/2023-08-02 12:45 -  
[DIR]ktp-desktop-applets/2023-08-02 12:45 -  
[DIR]ktp-filetransfer-handler/2023-08-02 12:45 -  
[DIR]ktp-kded-integration-module/2023-08-02 12:45 -  
[DIR]ktp-send-file/2024-07-08 14:14 -  
[DIR]ktp-text-ui/2024-07-08 14:14 -  
[DIR]ktrip/2024-07-08 14:14 -  
[DIR]ktuberling/2024-07-08 14:14 -  
[DIR]kturtle/2024-07-08 14:14 -  
[DIR]kubrick/2024-07-08 14:14 -  
[DIR]kunitconversion/2024-07-08 14:14 -  
[DIR]kup-backup/2024-07-08 14:14 -  
[DIR]kuserfeedback/2024-07-08 14:14 -  
[DIR]kwallet-kf5/2024-07-08 14:14 -  
[DIR]kwallet-pam/2024-07-08 14:14 -  
[DIR]kwalletmanager/2024-07-08 14:14 -  
[DIR]kwave/2024-07-08 14:14 -  
[DIR]kwayland-integration/2024-07-08 14:14 -  
[DIR]kwayland-server/2022-09-16 14:00 -  
[DIR]kwayland/2024-07-08 14:14 -  
[DIR]kwayland5/2024-07-08 14:14 -  
[DIR]kweather/2024-07-08 14:14 -  
[DIR]kweathercore/2024-07-08 14:14 -  
[DIR]kwidgetsaddons/2024-07-08 14:14 -  
[DIR]kwin/2024-07-08 14:14 -  
[DIR]kwindowsystem/2024-07-08 14:14 -  
[DIR]kwordquiz/2024-07-08 14:14 -  
[DIR]kwrited/2024-07-08 14:14 -  
[DIR]kxmlgui/2024-07-08 14:14 -  
[DIR]kxmlrpcclient/2024-07-08 14:14 -  
[DIR]kxstitch/2024-07-08 14:14 -  

Apache/2.4.52 (Ubuntu) Server at origin.archive.neon.kde.org Port 443